Location: *
(47.2969°N, 10.2930°E)
Time: 09:27:16
(UTC+00:00)

ERBS - Pass Details

Date: 09 April 2020
Orbit: 410 x 426 km, 57.0° (Epoch: 24 May)

Event Time Altitude Azimuth Distance (km) Brightness Sun altitude
Rises 18:33:37 0° 309° (NW) 2,391 7.7 -6.3°
Reaches altitude 10° 18:35:58 10° 323° (NW) 1,525 6.1 -6.7°
Maximum altitude 18:38:52 25° 21° (NNE) 906 3.9 -7.1°
Drops below altitude 10° 18:41:45 10° 79° (E) 1,523 4.6 -7.6°
Enters shadow 18:42:13 - 83° (E) 1,683 4.8 -7.7°
